EW0641 Weather Reports


Display with metric or nautical units.
time (UTC)temp
F
wind
direction
speed
MPH
gust
MPH
rain 1hr
in
rain 24hr
in
rain mn
in
humidity
%
barometer
mb
20260506230059 55 5 0.0 0.0 0.00 0.01 0.00 47 1012.1
20260506224558 55 5 0.0 0.0 0.00 0.01 0.00 47 1012.3
20260506223101 55 40 0.0 0.0 0.00 0.01 0.00 48 1012.2
20260506221600 55 355 0.0 0.0 0.00 0.01 0.00 50 1012.4
20260506220057 55 355 0.0 0.0 0.00 0.01 0.00 49 1012.4
20260506214604 55 10 0.0 0.0 0.00 0.01 0.00 49 1012.3
20260506213057 54 355 0.0 0.0 0.00 0.01 0.00 48 1012.3
20260506211559 54 321 0.0 0.0 0.00 0.01 0.00 47 1012.3
20260506210055 55 346 0.0 0.0 0.00 0.01 0.00 46 1012.1
20260506204604 55 15 0.0 0.0 0.00 0.01 0.00 47 1012.0
20260506203052 56 360 0.0 0.0 0.00 0.01 0.00 49 1012.0
20260506201551 54 360 0.0 0.0 0.00 0.01 0.00 51 1012.1
20260506200051 54 14 0.0 0.0 0.00 0.01 0.00 51 1012.1
20260506194550 54 12 0.0 0.0 0.00 0.01 0.00 52 1012.2
20260506193048 54 351 0.0 0.0 0.00 0.01 0.00 50 1012.3
20260506191546 54 13 0.0 0.0 0.00 0.01 0.00 54 1012.2
20260506190045 54 5 0.0 0.0 0.00 0.01 0.00 55 1012.2
20260506184545 53 9 0.0 0.0 0.00 0.01 0.00 57 1012.1
20260506183044 53 123 0.0 0.0 0.00 0.01 0.00 61 1012.2
20260506181539 52 68 0.0 0.0 0.00 0.01 0.00 62 1012.3
20260506180038 51 77 0.0 0.0 0.00 0.01 0.00 62 1012.4
20260506174538 51 87 0.0 0.0 0.00 0.02 0.00 63 1012.5
20260506173036 51 69 0.0 0.0 0.00 0.02 0.00 63 1012.5
20260506171535 51 161 0.0 0.0 0.00 0.02 0.00 64 1012.2
20260506170036 51 136 0.0 0.0 0.00 0.02 0.00 63 1012.3
20260506164534 51 152 0.0 0.0 0.00 0.02 0.00 64 1012.2
20260506163034 52 106 0.0 0.0 0.00 0.02 0.00 65 1012.4
20260506161533 51 104 0.0 0.0 0.00 0.02 0.00 63 1012.2
20260506160030 51 48 0.0 0.0 0.00 0.02 0.00 63 1012.1
20260506154530 50 74 0.0 0.0 0.00 0.02 0.00 64 1012.1
20260506153040 51 125 0.0 0.0 0.00 0.02 0.00 63 1012.1
20260506151528 51 128 0.0 0.0 0.00 0.02 0.00 63 1011.9
20260506150027 51 95 0.0 0.0 0.00 0.02 0.00 62 1011.6
20260506144537 51 40 0.0 0.0 0.00 0.02 0.00 64 1011.7
20260506143023 50 38 0.0 0.0 0.00 0.02 0.00 63 1011.8
20260506141520 50 43 0.0 0.0 0.00 0.02 0.00 64 1011.6
20260506140026 50 38 0.0 0.0 0.00 0.02 0.00 64 1011.5
20260506134516 50 348 0.0 0.0 0.00 0.02 0.00 64 1011.1
20260506133013 49 29 0.0 0.0 0.00 0.02 0.00 61 1011.1
20260506131511 49 25 0.0 0.0 0.00 0.02 0.00 63 1010.7
20260506130010 48 69 0.0 0.0 0.00 0.02 0.00 62 1010.6
20260506124507 48 88 0.0 0.0 0.00 0.02 0.00 65 1010.3
20260506123006 47 34 0.0 0.0 0.00 0.02 0.00 69 1010.2
20260506121505 47 49 0.0 0.0 0.00 0.02 0.00 69 1010.3
20260506120004 47 40 0.0 0.0 0.00 0.02 0.00 72 1010.1
20260506114500 47 40 0.0 0.0 0.00 0.02 0.00 72 1009.8
20260506113100 47 50 0.0 0.0 0.00 0.02 0.00 73 1009.5
20260506111557 47 40 0.0 0.0 0.00 0.02 0.00 75 1009.4
20260506110055 47 53 0.0 0.0 0.00 0.02 0.00 74 1009.1
20260506104600 48 58 0.0 0.0 0.00 0.02 0.00 73 1008.9
20260506103049 48 51 0.0 0.0 0.00 0.02 0.00 71 1008.5
20260506101548 49 51 0.0 0.0 0.00 0.02 0.00 67 1008.3
20260506100104 49 34 0.0 0.0 0.00 0.02 0.00 66 1008.2
20260506094552 49 236 0.0 0.0 0.00 0.02 0.00 66 1008.1
20260506093047 49 237 0.0 0.0 0.00 0.02 0.00 66 1008.1
20260506091547 49 236 0.0 0.0 0.00 0.02 0.00 66 1007.8
20260506090045 49 236 0.0 0.0 0.00 0.02 0.00 67 1007.8
20260506084551 49 236 0.0 0.0 0.00 0.02 0.00 70 1008.1
20260506083046 49 234 0.0 0.0 0.00 0.02 0.00 75 1007.7
20260506081554 48 230 0.0 0.0 0.00 0.02 0.00 81 1007.7
20260506073038 48 229 0.0 0.0 0.00 0.02 0.00 83 1007.7
20260506071542 48 229 0.0 0.0 0.00 0.02 0.00 83 1007.7
20260506061538 48 229 0.0 0.0 0.00 0.02 0.00 83 1008.1
20260506044543 49 240 0.0 0.0 0.00 0.04 0.00 81 1008.1
20260506043027 49 240 0.0 0.0 0.00 0.04 0.00 80 1008.2
20260506041526 49 242 0.0 0.0 0.00 0.04 0.00 81 1007.9
20260506040023 48 242 0.0 0.0 0.00 0.04 0.00 80 1007.9
20260506034522 49 242 0.0 0.0 0.00 0.04 0.04 80 1007.8
20260506033026 49 242 0.0 0.0 0.01 0.04 0.04 79 1008.1
20260506031537 49 242 0.0 0.0 0.01 0.04 0.04 78 1008.1
20260506030016 50 262 0.0 0.0 0.01 0.04 0.04 75 1008.3
20260506024517 51 360 0.0 0.0 0.01 0.04 0.04 68 1008.2
20260506023010 51 360 0.0 0.0 0.00 0.03 0.03 65 1008.1
20260506021507 52 360 0.0 0.0 0.00 0.03 0.03 63 1007.9
20260506020004 53 360 0.0 0.0 0.00 0.03 0.03 59 1007.9
20260506014501 54 360 0.0 0.0 0.00 0.03 0.03 57 1007.7
20260506013110 54 5 0.0 0.0 0.00 0.03 0.03 58 1007.4
20260506011601 54 5 0.0 0.0 0.00 0.03 0.03 57 1007.2
20260506010119 54 350 0.0 0.0 0.00 0.03 0.03 59 1007.2
20260506004557 55 350 0.0 0.0 0.00 0.08 0.03 58 1007.3
20260506003112 55 355 0.0 0.0 0.00 0.08 0.03 57 1007.3
20260506001602 55 294 0.0 0.0 0.00 0.08 0.03 63 1007.1
20260506000055 55 294 0.0 0.0 0.00 0.08 0.03 65 1006.6
20260505234553 56 275 0.0 0.0 0.00 0.08 0.03 66 1006.4
20260505233104 56 274 0.0 0.0 0.00 0.08 0.03 65 1006.3
20260505231552 56 273 0.0 0.0 0.00 0.08 0.03 66 1006.4